Location: Lecco
(45.8566°N, 9.3977°E)
Time: 08:06:58
(UTC+02:00)

Altair - Pass Details

Date: 23 August 2020
Orbit: 1501 x 1682 km, 47.2° (Epoch: 25 September)

Event Time Altitude Azimuth Distance (km) Brightness Sun altitude
Rises 07:52:57 0° 291° (WNW) 4,730 9.5 12.9°
Reaches altitude 10° 07:56:39 10° 280° (W) 3,718 9.0 13.5°
Maximum altitude 08:03:53 26° 229° (SW) 2,620 8.5 14.8°
Drops below altitude 10° 08:11:01 10° 177° (S) 3,644 9.6 16.0°
Sets 08:14:38 0° 165° (SSE) 4,619 10.2 16.7°
